[[{"header":{"parameterUnit":"m.s-1","parameterCategory":1,"la1":30.2992,"la2":30.254,"lo1":-89.0895,"lo2":-89.0443,"dy":0.0025,"dx":0.0025,"nx":19,"ny":19,"refTime":"2026-04-21T09:00:00:Z","depth":0,"parameterNumber":2,"parameterNumberName":"U-component_of_WINDS"},"data":[0,0,0,-3.8926,-3.893,-3.9136,-3.9137,-3.9385,-3.9387,0,0,0,0,0,0,0,0,0,0,0,-3.8852,-3.8853,-3.8926,-3.893,-3.9136,-3.9137,-3.9385,-3.9387,0,0,0,0,0,0,0,0,0,0,0,-3.8851,-3.8853,-3.8854,-3.8931,-3.9136,-3.9137,-3.9384,-3.9235,0,0,0,0,0,0,0,0,0,0,-3.9038,-3.8956,-3.8852,-3.8854,-3.8932,-3.9135,-3.9137,-3.9228,-3.9245,-3.9284,0,-3.9312,0,-3.9353,-3.9402,-3.9403,0,0,0,-3.8941,-3.8942,-3.9009,-3.8854,-3.8934,-3.9135,-3.9046,-3.9238,-3.9256,-3.9305,-3.9316,-3.9326,-3.9358,-3.9404,-3.9405,-3.9591,-3.9591,0,0,-3.893,-3.8882,-3.8997,-3.902,-3.8984,-3.904,-3.9052,-3.9249,-3.9259,-3.9317,-3.9332,-3.9362,-3.9405,-3.9407,-3.959,-3.9591,0,0,0,-3.889,-3.8874,-3.8937,-3.901,-3.9048,-3.9045,-3.906,-3.925,-3.9274,-3.9335,-3.9365,-3.9407,-3.941,-3.959,-3.9591,-3.956,0,0,0,-3.8883,-3.8851,-3.8931,-3.8904,-3.9044,-3.9151,-3.9056,-3.9261,-3.9284,-3.9363,-3.9407,-3.9412,-3.959,-3.959,-3.956,-3.9553,0,0,0,-3.8843,-3.8846,-3.8871,-3.8901,-3.8988,-3.9149,-3.9185,-3.9267,-3.9302,-3.9403,-3.9412,-3.9589,-3.959,-3.956,-3.9553,-3.9587,0,0,0,-3.8787,-3.8842,-3.887,-3.8944,-3.8986,-3.9128,-3.9184,-3.9293,-3.9376,-3.9408,-3.959,-3.9591,-3.956,-3.9554,-3.9587,-3.9605,-3.9609,0,0,-3.883,-3.8846,-3.8894,-3.8924,-3.9048,-3.91,-3.9223,-3.9345,-3.9401,-3.9525,-3.9531,-3.956,-3.9553,-3.9587,-3.9649,-3.9651,0,0,0,-3.8892,-3.8925,-3.8969,-3.9044,-3.9138,-3.922,-3.9329,-3.9375,-3.9483,-3.9453,-3.9585,-3.9582,-3.9604,-3.9615,-3.9617,-3.9639,-3.9594,-3.9594,-3.9594,-3.8883,-3.895,-3.9034,-3.9125,-3.9199,-3.9312,-3.9379,-3.9462,-3.9508,-3.9539,-3.9574,-3.9604,-3.9615,-3.9617,-3.9639,-3.9592,-3.9592,-3.9592,-3.9592,-3.8953,-3.901,-3.9072,-3.9174,-3.9246,-3.9335,-3.9449,-3.9479,-3.9574,-3.9582,-3.9604,-3.9604,-3.9617,-3.964,-3.959,-3.9591,-3.9591,-3.9591,-3.9591,-3.8952,-3.8992,-3.9046,-3.9165,-3.925,-3.9344,-3.9432,-3.9496,-3.9557,-3.9579,-3.9625,-3.9625,-3.9633,-3.9597,-3.9597,-3.9597,-3.9597,-3.9597,-3.9597,-3.8929,-3.8993,-3.9057,-3.9164,-3.9222,-3.9308,-3.9425,-3.9486,-3.957,-3.961,-3.961,-3.9654,-3.9606,-3.9591,-3.9599,-3.9599,-3.9599,-3.9599,-3.9598,-3.897,-3.8972,-3.9071,-3.9129,-3.9262,-3.9342,-3.9424,-3.9543,-3.9603,-3.9645,-3.9687,-3.9641,-3.9662,-3.9661,-3.9649,-3.9672,-3.9672,-3.9672,-3.9672,-3.8968,-3.8986,-3.9102,-3.9192,-3.9288,-3.9372,-3.9486,-3.9581,-3.9679,-3.9721,-3.9729,-3.9719,-3.9716,-3.9739,-3.9736,-3.9726,-3.9767,-3.9767,-3.9768,-3.8997,-3.9027,-3.9109,-3.9202,-3.9311,-3.9405,-3.9515,-3.9619,-3.9732,-3.9773,-3.9756,-3.9752,-3.9738,-3.973,-3.9766,-3.976,-3.9743,0,0]},{"header":{"parameterUnit":"m.s-1","parameterCategory":1,"la1":30.2992,"la2":30.254,"lo1":-89.0895,"lo2":-89.0443,"dy":0.0025,"dx":0.0025,"nx":19,"ny":19,"refTime":"2026-04-21T09:00:00:Z","depth":0,"parameterNumber":3,"parameterNumberName":"V-component_of_WINDS"},"data":[0,0,0,3.3231,3.3234,3.3404,3.3405,3.3592,3.3593,0,0,0,0,0,0,0,0,0,0,0,3.316,3.3161,3.3231,3.3234,3.3404,3.3405,3.3591,3.3593,0,0,0,0,0,0,0,0,0,0,0,3.316,3.316,3.3161,3.3235,3.3404,3.3405,3.3591,3.3474,0,0,0,0,0,0,0,0,0,0,3.3315,3.3229,3.316,3.3161,3.3236,3.3404,3.3405,3.3469,3.3481,3.3501,0,3.3511,0,3.3554,3.3603,3.3604,0,0,0,3.325,3.3218,3.3282,3.3161,3.3237,3.3403,3.3332,3.3476,3.349,3.3517,3.3514,3.3522,3.3558,3.3604,3.3605,3.3661,3.366,0,0,3.3241,3.318,3.3272,3.329,3.326,3.3326,3.3337,3.3485,3.3479,3.3515,3.3527,3.3561,3.3605,3.3606,3.3661,3.3661,0,0,0,3.3203,3.3173,3.3234,3.3282,3.3314,3.3331,3.3343,3.3472,3.3497,3.3529,3.3563,3.3606,3.3608,3.3662,3.3661,3.3579,0,0,0,3.3198,3.3151,3.3229,3.3194,3.3311,3.3395,3.3326,3.3487,3.3505,3.3562,3.3606,3.361,3.3663,3.3662,3.3582,3.355,0,0,0,3.3156,3.3146,3.3164,3.319,3.3261,3.3394,3.3428,3.3492,3.3525,3.3604,3.361,3.3663,3.3662,3.3586,3.3556,3.3548,0,0,0,3.3094,3.3088,3.3161,3.3168,3.3259,3.3341,3.3428,3.3492,3.355,3.3607,3.3663,3.3661,3.3587,3.3559,3.3551,3.3531,3.3517,0,0,3.3053,3.3081,3.309,3.3161,3.3214,3.332,3.3363,3.3473,3.3537,3.3616,3.3619,3.3581,3.3556,3.3549,3.3456,3.3444,0,0,0,3.3057,3.3062,3.309,3.3141,3.3224,3.3294,3.3404,3.3446,3.3516,3.3564,3.3578,3.3565,3.3563,3.3557,3.3547,3.355,3.3655,3.3655,3.3656,3.2912,3.2993,3.3014,3.3115,3.3164,3.3278,3.3325,3.3401,3.3469,3.347,3.3495,3.3429,3.3419,3.3412,3.3413,3.349,3.349,3.349,3.3489,3.2861,3.2883,3.2972,3.3024,3.311,3.3156,3.3266,3.3312,3.3369,3.3417,3.3419,3.3466,3.3396,3.3402,3.3484,3.3485,3.3486,3.3486,3.3487,3.2777,3.2801,3.285,3.2933,3.2988,3.3092,3.3141,3.3218,3.3291,3.3293,3.3328,3.333,3.3342,3.3304,3.3304,3.3304,3.3304,3.3303,3.3303,3.267,3.2728,3.276,3.2848,3.2891,3.2958,3.3072,3.3118,3.3189,3.3241,3.3242,3.331,3.3373,3.3388,3.33,3.3301,3.3301,3.3301,3.3302,3.259,3.262,3.2669,3.2712,3.2822,3.2872,3.2969,3.3055,3.3104,3.3127,3.3194,3.3228,3.3263,3.3272,3.3285,3.3176,3.3176,3.3176,3.3176,3.252,3.2544,3.2612,3.2676,3.2748,3.284,3.2894,3.2983,3.3081,3.3116,3.3143,3.3167,3.3172,3.3204,3.3214,3.3227,3.3106,3.3106,3.3106,3.2476,3.2511,3.2542,3.2635,3.2727,3.2805,3.2859,3.293,3.3047,3.3105,3.3146,3.3149,3.3188,3.3196,3.3255,3.3269,3.3295,0,0]}]]